Flag for U.S.A. Weather past 2 weeks in New Orleans, Louisiana, U.S.A.

Now
78 °F

Clear.


Feels Like: 81 °F
Forecast: 75 / 87 °F
Wind: 5 mph from South

Location: Lakefront Airport

Current Time: Sep 4, 2015 at 3:50:51 AM

Latest Report: Sep 4, 2015 at 2:53 AM


Visibility: 10 mi

Pressure: 29.93 "Hg

Humidity: 87%

Dew point: 74 °F

Location of New OrleansLocation

Historic Weather in New Orleans — Graph

°F

New Orleans temperature yesterday

Maximum temperature yesterday: 85 °F (at 2:53 PM)
Minimum temperature yesterday: 78 °F (at 12:53 AM)
Average temperature yesterday: 81 °F

Past Weeks' High & Low Weather Summary

 TemperatureHumidityPressure
High92 °F (Aug 24, 2:53 PM)94% (Aug 20, 3:53 AM)30.08 "Hg (Aug 20, 3:53 AM)
Low75 °F (Aug 26, 6:53 AM)33% (Aug 25, 7:53 PM)29.89 "Hg (Sep 3, 6:53 PM)
Average83 °F67%29.99 "Hg
* Reported Aug 20 1:53 AM — Sep 4 1:53 AM, New Orleans, Weather by CustomWeather, © 2015

Note: Actual official high and low records may vary slightly from our data, if they occured in-between our weather recording intervals... More about our weather records

Advertising

New Orleans weather history for previous 24 hours

 ConditionsComfort  
Time TempWeatherWind HumidityBarometerVisibility
1:53 AM
Fri, Sep 4
78 °FClear.3 mph87%29.92 "Hg10 mi
12:53 AM79 °FClear.3 mph84%29.93 "Hg10 mi
11:53 PM
Thu, Sep 3
79 °FPassing clouds.5 mph84%29.93 "Hg10 mi
10:53 PM79 °FClear.6 mph84%29.93 "Hg10 mi
9:53 PM79 °FClear.6 mph84%29.92 "Hg10 mi
8:53 PM80 °FClear.6 mph85%29.91 "Hg10 mi
7:53 PM80 °FSunny.5 mph81%29.90 "Hg10 mi
6:53 PM82 °FPassing clouds.7 mph74%29.89 "Hg10 mi
5:53 PM82 °FScattered clouds.9 mph74%29.90 "Hg10 mi
4:53 PM83 °FPassing clouds.10 mph74%29.91 "Hg10 mi
3:53 PM85 °FScattered clouds.9 mph68%29.94 "Hg10 mi
2:53 PM85 °FPassing clouds.10 mph68%29.95 "Hg10 mi
1:53 PM83 °FScattered clouds.6 mph70%29.97 "Hg10 mi
12:53 PM83 °FSunny.7 mph72%29.98 "Hg10 mi
11:53 AM79 °FMostly cloudy.6 mph88%30.00 "Hg10 mi
10:53 AM80 °FPassing clouds.9 mph74%30.01 "Hg10 mi
9:53 AM82 °FMostly cloudy.6 mph79%29.99 "Hg10 mi
8:53 AM82 °FPassing clouds.8 mph82%29.98 "Hg10 mi
7:53 AM80 °FScattered clouds.9 mph87%29.98 "Hg10 mi
6:53 AM80 °FPassing clouds.5 mph85%29.97 "Hg10 mi
5:53 AM79 °FClear.No wind84%29.97 "Hg10 mi
4:53 AM79 °FClear.5 mph84%29.96 "Hg10 mi
3:53 AM78 °FClear.3 mph84%29.94 "Hg10 mi
Weather by CustomWeather, © 2015

See weather overviewHow to use our weather pages